STARLINK-31 (44235 NORAD) Tracking and Keplerian Element Data

This shows tracking and keplerian element data for the satellite.

Feedback or suggestion? Click here.




ElementValue
Catalog44235
NameSTARLINK-31
Epoch Orbit7697
Epoch Day275.31341942
Epoch Year2020
RAAN36.3928
Inclination52.9736
Eccentricity0.0009041
Argument of Perigee295.9879
Mean Anonmoly160.3065
Mean Motion16.46847225
Decay Rate0.09808971
L11 44235U 19029A 20275.31341942 .09808971 12623-4 18159-3 0 9999
L22 44235 52.9736 36.3928 0009041 295.9879 160.3065 16.46847225 76971

Live tracking and technical data element details for STARLINK-31 (NORAD 44235). STARLINK-31 can be tracked NOW for your location showing map with azimuth and elevation plus other details from your city location.

Track the satellite on the map from your city or location and see movement details for azimuth, elevation, latitude, longitude, range, height, and movement on the map or in text.







IsCatalogInMostPopularTable: catalog: 44235, numindb: 701
Update: records affected: 1



GetName: 44235 STARLINK-31

Hit Count: updated at: Mon, 23 Nov 2020 22:16:13 GMT